Вернуться в каталог

COSMOS 397 DEB

АктивенLEO
NORAD 5094·DEBRIS·🇷🇺 Russia

Запущен Feb 25, 1971 с Baikonur Cosmodrome

Loading…

Ближайшие Пролёты (ближайшие 24 часа)

TLE

СвежийSource: Space-Track

Эпоха: Sep 14, 2026, 10:37 UTC

1 05094U 71015U   26257.44259705  .00006209  00000-0  87900-3 0  9994
2 05094  65.6845 324.4134 0304241 112.7521 250.6033 14.50768846702061

Отслеживайте COSMOS 397 DEB в реальном времени с AllMySat

Download on the App Store